{"data":{"norad_id":53494,"intl_designator":"2022-099AF","name":"STARLINK-4340","alt_names":[],"object_type":"PAYLOAD","status":"ACTIVE","operator":null,"country":"US","launch_date":"2022-08-12","launch_site_code":"AFWTR","launch_vehicle":null,"mission":null,"orbit_class":"UNKNOWN","rcs_meters":null,"size_class":null,"mass_kg":null,"dimensions":null,"purposes":["comms"],"wikipedia_slug":null,"has_3d_model":false,"image_url":null,"decayed_at":null,"tle_current":{"epoch":"2026-09-20T07:04:30.019296Z","epoch_age_seconds":96800,"freshness":"FRESH","line1":"1 53494U 22099AF  26263.29479189  .00000124  00000+0  61688-5 0  9995","line2":"2 53494  97.2854  20.8828 0001456  89.3489 270.7920 15.33437683225512","mean_motion":15.33437683,"eccentricity":0.0001456,"inclination_deg":97.2854,"raan_deg":20.8828,"arg_perigee_deg":89.3489,"mean_anomaly_deg":270.792,"bstar":6.1688e-6,"rev_number":22551,"period_min":93.906652742666,"perigee_km":464.56850180559,"apogee_km":466.56138781191,"semimajor_km":6843.7019448088,"source":"CELESTRAK","updated_at":"2026-09-21T09:00:32.894208Z"}}}